Regional Weather Roundup
Issued by NWS

Home | Current Version | Previous Version | Text Only | Print | Product List | Glossary Off
Versions: 1 2 3 4 5 6 7 8 9 10 11 12 13 14 15 16 17 18 19 20 21 22 23 24 25 26 27 28 29 30 31 32 33 34 35 36 37 38 39 40 41 42 43 44 45 46 47 48 49 50

000
ASUS43 KIND 160400
RWRIN

WEATHER ROUNDUP FOR INDIANA
NATIONAL WEATHER SERVICE INDIANAPOLIS IN
1200 AM EDT WED AUG 16 2017

NOTE: "FAIR" INDICATES FEW OR NO CLOUDS BELOW 12,000 FEET WITH NO
SIGNIFICANT WEATHER AND/OR OBSTRUCTIONS TO VISIBILITY.

* - STATION DOES NOT REPORT WEATHER SUCH AS PRECIPITATION OR FOG.

+ - STATION NOT QUALITY CONTROLLED BY THE NATIONAL WEATHER SERVICE.
    USE DATA WITH CAUTION...ESPECIALLY DEWPOINT AND RELATIVE
    HUMIDITY OBSERVATIONS.

INZ001>003-010>013-019-020-160500-
NORTHWEST INDIANA

CITY           SKY/WX    TMP DP  RH WIND       PRES   REMARKS
MICHIGAN CITY+ CLEAR     63  63 100 CALM      30.00R FOG
MONTICELLO +   PTCLDY    71  66  84 NE5       29.96S
RENSSELAER +   CLEAR     68  63  83 N6        29.98R

$$

LMZ046-743>745-160500-
SOUTHERN LAKE MICHIGAN

STATION/POSITION TIME  TEMP    WIND        PRES    WAVE
                       AIR SEA DIR/SP/G            HT
                 (UTC) (F)     (DEG/KT/KT) (MB)    (FT)
BURNS HARBOR     0340   72      50/ 11/ 13 1015.9R
MICHIGAN CITY    0330   71      30/ 12/ 13   N/A
5NW MICH CITY    0350   72 74   60/ 10/ 12   N/A     3

$$

INZ004-005-014>016-021>024-160500-
NORTH CENTRAL INDIANA

CITY           SKY/WX    TMP DP  RH WIND       PRES   REMARKS
GOSHEN         CLOUDY    67  62  84 NE3       29.98S
SOUTH BEND     CLOUDY    65  65 100 N3        29.99S
WARSAW +       CLEAR     64  64 100 CALM      29.99S

$$

INZ006>009-017-018-025>027-160500-
NORTHEAST INDIANA

CITY           SKY/WX    TMP DP  RH WIND       PRES   REMARKS
FORT WAYNE     PTCLDY    69  64  84 N3        29.98R
KENDALLVILLE + FOG       64  64 100 CALM      30.00R VSB 3/4

$$

INZ028-029-035-036-043>045-051>053-160500-
WEST CENTRAL INDIANA

CITY           SKY/WX    TMP DP  RH WIND       PRES   REMARKS
LAFAYETTE      MOCLDY    70  69  97 CALM      29.96R
TERRE HAUTE    CLEAR     70  67  90 E3        29.96R

$$

INZ030>032-037>040-046>048-054>057-064-065-160500-
CENTRAL INDIANA

CITY           SKY/WX    TMP DP  RH WIND       PRES   REMARKS
INDIANAPOLIS   MOCLDY    76  67  73 CALM      29.97R
-EAGLE CREEK   MOCLDY    74  70  87 CALM      29.97R
KOKOMO +       CLOUDY    69  67  93 NE3       29.99R
MT COMFORT *+  PTCLDY    68  66  94 CALM      29.98R
SHELBYVILLE    PTCLDY    72  67  84 S3        29.97R

$$

INZ033-034-041-042-049-050-058-059-160500-
EAST CENTRAL INDIANA

CITY           SKY/WX    TMP DP  RH WIND       PRES   REMARKS
MUNCIE         CLOUDY    70  65  84 CALM      29.98R
RICHMOND +     CLEAR     64  63  94 CALM      30.01R FOG

$$

INZ060-061-067>069-081>083-085>088-160500-
SOUTHWEST INDIANA

CITY           SKY/WX    TMP DP  RH WIND       PRES   REMARKS
EVANSVILLE     CLEAR     74  71  91 CALM      29.97R
HUNTINGBURG *+ CLEAR     72  72 100 CALM      29.98R FOG

$$

INZ062-063-066-070>080-084-089>092-160500-
SOUTH CENTRAL AND SOUTHEAST INDIANA

CITY           SKY/WX    TMP DP  RH WIND       PRES   REMARKS
BLOOMINGTON    PTCLDY    66  63  90 CALM      29.98R
MADISON *+     CLEAR     70  68  94 CALM      30.00S
SEYMOUR +      CLEAR     70  70 100 CALM      29.97R FOG

$$





USA.gov is the U.S. government's official web portal to all federal, state and local government web resources and services.